Location: Drummondville
(45.8830°N, 72.4830°W)
Time: 09:40:03
(UTC-05:00)

N. Korean satellite - Pass Details

Date: 10 November 2017
Orbit: 460 x 514 km, 97.2° (Epoch: 23 November)

Event Time Altitude Azimuth Distance (km) Brightness Sun altitude
Rises 17:13:55 0° 147° (SSE) 2,475 10.0 -9.0°
Reaches altitude 10° 17:16:02 10° 138° (SE) 1,608 8.9 -9.4°
Maximum altitude 17:19:12 35° 71° (ENE) 766 7.0 -9.9°
Drops below altitude 10° 17:22:26 10° 5° (N) 1,635 9.0 -10.4°
Sets 17:24:36 0° 356° (N) 2,524 10.1 -10.8°
